Gillette, WY

6:55 AM MST on February 25, 2018 (GMT -0700)
Gillette-Campbell County

Weather History for KGCC - March, 2015

Change the Weather History Date:

Friday, March 20, 2015

  Actual Average Record
Temperature  
Mean Temperature 51 °F 36 °F  
Max Temperature 64 °F 48 °F 75 °F (2007)
Min Temperature 37 °F 23 °F -9 °F (1965)
Degree Days  
Heating Degree Days 14 29  
Month to date heating degree days 518 632  
Since 1 July heating degree days 5608 6040  
Cooling Degree Days 0 0  
Month to date cooling degree days 0 0  
Year to date cooling degree days 0 0  
Moisture  
Dew Point 23 °F    
Average Humidity 42    
Maximum Humidity 64    
Minimum Humidity 19    
Precipitation  
Precipitation 0.00 in 0.04 in 0.30 in (1944)
Month to date precipitation 0.18 0.55  
Year to date precipitation 1.03 1.33  
Sea Level Pressure  
Sea Level Pressure 30.03 in    
Wind  
Wind Speed 11 mph (West)    
Max Wind Speed 25 mph    
Max Gust Speed 30 mph    
Visibility 10 miles    
Events      
T = Trace of Precipitation, MM = Missing Value Source: NWS Daily Summary

Daily Weather History Graph

Daily Weather History Graph

Search for Another Location

Airport or City:

Trip Planner

Search our weather history database for the weather conditions in past years. The results will help you decide how hot, cold, wet, or windy it might be!

Date:

Astronomy

Mar. 20, 2015 Rise Set
Actual Time 7:05 AM MDT 7:14 PM MDT
Civil Twilight 6:36 AM MDT 7:43 PM MDT
Nautical Twilight 6:02 AM MDT 8:17 PM MDT
Astronomical Twilight 5:28 AM MDT 8:52 PM MDT
Moon 7:11 AM MDT (3/20) 7:59 PM MDT (3/20)
Length of Visible Light 13h 06m
Length of Day
12h 08m
New Moon, 0% of the Moon is Illuminated
Mar 20
New Moon
Mar 27
First Quarter
Apr 4
Full
Apr 11
Last Quarter
Apr 18
New

Hourly Weather History & Observations

Time (MDT) Temp. Windchill Dew Point Humidity Pressure Visibility Wind Dir Wind Speed Gust Speed Precip Events Conditions
12:15 AM 42.1 °F 34.5 °F 23.0 °F 47% 30.01 in 10.0 mi SSW 15.0 mph - N/A   Clear
12:53 AM 42.1 °F 34.5 °F 21.9 °F 45% 29.99 in 10.0 mi SSW 15.0 mph - N/A   Clear
1:53 AM 43.0 °F 36.4 °F 19.9 °F 40% 29.99 in 10.0 mi SW 12.7 mph - N/A   Clear
2:53 AM 45.0 °F 37.9 °F 19.0 °F 36% 29.97 in 10.0 mi SW 16.1 mph - N/A   Clear
3:53 AM 45.0 °F 37.9 °F 19.9 °F 37% 29.96 in 10.0 mi SW 16.1 mph - N/A   Clear
4:53 AM 44.1 °F 37.7 °F 21.0 °F 40% 29.96 in 10.0 mi WSW 12.7 mph - N/A   Clear
5:53 AM 41.0 °F 35.2 °F 21.0 °F 45% 29.99 in 10.0 mi West 9.2 mph - N/A   Clear
6:53 AM 41.0 °F 34.7 °F 21.9 °F 47% 30.03 in 10.0 mi WSW 10.4 mph - N/A   Clear
7:53 AM 43.0 °F 37.7 °F 23.0 °F 45% 30.09 in 10.0 mi West 9.2 mph - N/A   Clear
8:53 AM 53.1 °F - 21.9 °F 30% 30.08 in 10.0 mi West 8.1 mph - N/A   Clear
9:53 AM 57.0 °F - 21.9 °F 26% 30.08 in 10.0 mi North 15.0 mph - N/A   Clear
10:53 AM 59.0 °F - 21.0 °F 23% 30.08 in 10.0 mi NW 21.9 mph 27.6 mph N/A   Clear
11:53 AM 60.8 °F - 24.8 °F 25% 30.10 in 10.0 mi North 16.1 mph 25.3 mph N/A   Clear
12:53 PM 60.1 °F - 23.0 °F 24% 30.06 in 10.0 mi NW 13.8 mph - N/A   Clear
1:53 PM 62.1 °F - 23.0 °F 22% 30.05 in 10.0 mi North 15.0 mph 20.7 mph N/A   Clear
2:53 PM 62.1 °F - 24.1 °F 23% 30.03 in 10.0 mi North 13.8 mph 17.3 mph N/A   Clear
3:53 PM 64.0 °F - 24.1 °F 22% 30.01 in 10.0 mi North 8.1 mph - N/A   Clear
4:53 PM 64.0 °F - 21.9 °F 20% 30.01 in 10.0 mi NNE 8.1 mph - N/A   Clear
5:53 PM 63.0 °F - 21.9 °F 21% 30.01 in 10.0 mi NNE 5.8 mph - N/A   Clear
6:53 PM 57.0 °F - 26.1 °F 30% 30.03 in 10.0 mi ENE 3.5 mph - N/A   Clear
7:53 PM 39.9 °F 37.8 °F 26.1 °F 58% 30.08 in 10.0 mi WSW 3.5 mph - N/A   Clear
8:53 PM 37.9 °F 32.1 °F 27.0 °F 65% 30.06 in 10.0 mi South 8.1 mph - N/A   Clear
9:53 PM 39.9 °F 32.1 °F 28.0 °F 63% 30.04 in 10.0 mi South 13.8 mph - N/A   Clear
10:53 PM 39.9 °F - 27.0 °F 60% 30.04 in 10.0 mi Calm Calm - N/A   Clear
11:53 PM 42.1 °F 38.4 °F 26.1 °F 53% 30.04 in 10.0 mi SSE 5.8 mph - N/A   Clear